Wind_Speed
18 18 18 18 17 16 16 15 15 15 15 14 13 13 13 13 13 13 12 12 12 12 12 12 12 12 12 11 11 12 12 12 12 13 13 13 12 12 12 13 13 14 14
19 19 19 19 19 18 17 17 16 16 15 15 14 14 14 14 13 13 13 14 14 13 13 13 13 13 12 12 12 12 12 13 12 12 13 13 13 13 14 14 15 14 14
20 20 20 20 19 19 18 18 17 17 17 16 15 15 14 14 13 14 14 15 15 14 14 14 14 14 14 14 13 13 13 14 14 14 14 14 15 15 15 17 16 16 15
20 20 20 20 20 19 19 18 19 19 18 18 17 16 16 15 15 15 15 15 15 16 15 15 15 15 15 15 14 14 15 15 15 15 15 16 16 17 17 17 17 17 18
22 21 21 20 20 20 20 20 20 20 19 19 18 18 17 16 16 17 17 16 16 16 16 16 16 16 16 16 16 17 17 17 17 16 17 18 18 19 19 20 19 20 20
22 21 20 20 21 21 21 20 20 19 19 19 17 17 18 17 17 17 17 16 16 16 16 16 16 17 17 17 16 17 18 18 18 18 18 19 20 20 20 20 21 21 22
22 21 20 20 20 20 21 20 20 19 19 19 18 18 18 18 18 18 18 17 17 17 18 18 16 17 17 17 17 17 18 19 20 20 20 20 20 21 21 22 22 22 22
21 21 20 20 20 20 21 21 20 20 20 21 20 20 20 20 19 19 19 19 19 19 18 19 18 17 17 17 18 18 18 19 19 20 20 21 21 21 22 22 22 22 22
20 20 20 20 21 21 21 21 21 21 21 21 21 21 20 20 20 20 20 20 19 19 19 18 18 18 18 18 19 19 19 19 20 20 20 20 21 22 22 22 22 22 21
20 20 20 21 21 22 22 22 21 21 21 21 22 22 21 22 21 21 20 20 20 20 20 19 19 19 19 19 20 19 20 20 20 20 21 22 22 23 22 22 22 23 23
20 20 20 21 21 22 22 22 22 22 22 22 22 22 23 24 23 22 22 21 22 22 21 20 20 20 20 20 20 20 20 20 20 20 21 22 23 23 23 24 24 24 24
20 20 20 21 21 21 21 22 22 23 23 23 23 23 23 24 24 23 23 22 22 22 22 21 21 21 20 20 21 20 20 20 20 21 22 23 24 23 24 24 24 25 25
20 21 20 20 21 21 22 22 23 23 23 23 23 23 23 23 23 23 23 22 22 22 22 22 22 20 20 21 21 21 21 21 21 21 22 23 24 23 24 24 25 25 25
21 22 21 21 21 21 22 22 23 23 23 23 24 23 23 22 22 21 21 21 21 21 21 21 21 21 21 21 22 22 21 22 22 22 22 23 23 23 24 24 24 25 25
21 21 22 22 21 21 22 22 22 23 23 22 22 22 21 20 19 19 20 21 21 21 21 21 21 21 21 21 21 21 21 21 22 23 23 22 23 23 24 24 24 24 25
22 22 22 21 21 22 23 23 22 23 22 21 21 20 20 19 19 19 19 20 20 20 20 21 21 21 21 20 20 20 20 21 21 22 22 23 23 23 23 23 23 23 23
22 22 22 22 22 22 23 23 22 22 22 22 21 20 20 19 19 19 20 20 20 20 20 21 21 21 21 21 20 21 20 20 21 21 22 23 23 23 23 23 23 23 23
23 23 23 23 23 23 23 23 22 22 22 21 21 20 20 20 20 20 20 20 21 21 21 20 20 20 20 20 20 21 21 21 21 22 22 22 22 22 22 22 22 21 21
24 23 23 23 24 23 22 22 22 22 21 21 21 21 21 21 21 21 21 20 20 20 20 20 20 20 20 20 21 22 23 21 22 23 23 22 22 22 22 22 21 21 21
23 23 24 24 23 23 23 22 23 23 22 22 21 21 21 21 21 21 21 20 20 20 20 20 20 20 20 21 21 22 22 22 22 22 22 22 21 21 20 20 21 21 21
24 24 24 24 23 23 23 23 22 22 23 22 22 21 21 21 20 20 20 19 20 20 20 20 20 20 21 22 21 21 22 22 22 22 21 21 21 21 20 19 20 20 20
24 24 24 24 24 24 24 24 23 23 23 22 22 21 20 20 20 20 20 19 19 20 20 21 21 21 22 22 21 21 21 21 21 21 21 20 20 20 19 19 19 19 19
24 25 25 24 24 24 24 24 24 23 23 22 21 20 20 20 20 20 20 20 19 20 19 19 19 20 21 21 20 20 20 20 20 21 21 20 20 20 18 18 18 18 18
25 25 25 25 24 24 23 24 24 23 23 22 21 20 20 20 20 20 20 20 19 19 19 19 19 19 21 21 21 21 20 20 20 20 20 19 19 19 18 18 18 17 17
25 25 26 25 25 25 25 25 25 24 23 22 21 21 21 21 21 20 20 20 19 19 19 19 20 20 21 21 21 21 20 20 19 19 19 19 19 18 18 18 18 18 17
25 26 26 25 25 25 25 24 24 24 24 23 22 22 22 21 21 21 21 21 20 19 19 19 20 20 21 20 20 20 20 19 19 19 19 19 19 18 18 18 18 17 17
Wind_Direction
265 267 268 267 265 267 269 269 270 271 275 279 279 282 278 274 271 266 265 266 267 268 271 270 270 270 269 268 268 268 271 270 273 274 270 271 270 267 269 268 270 272 270
263 266 267 266 265 265 265 266 267 269 272 274 276 276 276 274 269 265 263 264 266 267 267 268 267 266 266 267 266 267 267 269 271 271 271 270 272 274 275 271 271 272 270
263 264 265 266 264 263 263 263 266 267 269 271 272 274 274 271 267 260 258 262 265 265 268 269 268 265 264 265 264 267 269 269 269 270 272 269 269 272 275 275 273 272 271
264 264 264 263 261 259 260 263 265 267 267 267 269 271 272 268 263 259 259 263 262 263 266 269 270 267 266 265 265 268 270 271 271 271 272 273 272 272 274 275 274 271 271
263 263 262 260 259 259 260 262 263 264 264 266 269 268 269 265 262 259 260 262 262 262 263 267 270 267 267 267 267 268 270 272 273 273 274 275 275 274 275 274 273 272 273
262 262 259 258 258 259 260 261 260 263 264 267 269 268 267 264 262 261 261 262 262 262 263 266 269 267 268 268 270 271 271 272 274 274 274 275 275 275 275 275 274 273 274
260 260 258 258 259 258 258 260 260 263 267 269 270 269 266 264 262 262 262 263 265 265 263 267 270 270 270 270 272 272 270 273 274 273 272 272 273 275 276 275 276 275 274
261 260 258 258 259 258 258 261 263 265 267 268 268 269 267 263 263 263 262 263 264 265 264 267 269 271 272 272 273 273 272 273 274 273 271 271 272 274 275 277 277 274 272
260 259 259 259 260 261 260 260 262 264 267 267 268 268 266 264 265 265 263 262 263 263 266 269 270 271 272 274 276 275 274 275 275 273 271 270 271 273 277 277 276 274 272
262 260 260 260 261 260 261 260 260 264 267 268 268 266 264 265 266 264 262 262 263 264 266 268 269 269 270 273 275 277 275 274 274 273 272 272 272 274 276 275 274 272 273
261 260 260 261 262 261 261 260 260 263 266 267 268 265 264 264 265 262 261 260 262 263 265 268 268 267 269 271 274 276 275 273 273 274 275 275 275 276 276 275 273 272 271
261 261 261 263 263 261 261 260 261 263 263 265 266 264 265 263 261 260 261 259 261 262 265 267 267 267 269 271 273 275 275 273 275 277 277 278 279 279 276 275 274 272 270
260 261 261 263 262 262 263 263 262 263 263 265 266 264 263 263 261 261 260 260 262 262 264 267 267 267 268 270 271 272 275 275 276 278 279 281 282 280 278 277 275 272 269
261 260 260 263 263 264 266 267 265 264 263 262 262 263 263 261 260 261 260 261 263 264 266 268 268 266 268 270 271 272 275 277 279 281 282 284 283 282 278 278 277 273 270
261 261 262 264 264 265 267 268 266 264 261 261 261 262 264 263 261 264 264 264 265 265 267 268 269 269 269 270 271 271 274 277 279 282 285 285 286 284 281 277 276 273 271
261 263 264 263 265 267 266 267 263 260 260 262 262 262 266 267 265 265 265 266 266 266 268 271 271 269 269 270 271 269 274 277 280 285 286 286 286 285 282 278 276 275 273
261 264 263 263 262 264 264 263 261 259 259 259 259 261 262 263 263 264 266 268 269 268 270 272 271 269 269 271 270 268 273 277 282 285 287 287 286 285 284 280 278 276 275
260 263 265 264 263 263 263 260 258 258 258 257 257 259 260 261 263 264 267 269 270 269 269 269 270 269 270 272 271 271 274 279 284 286 287 287 287 287 284 282 281 279 278
258 260 262 263 262 262 261 258 255 256 257 257 258 259 260 261 263 264 268 268 268 268 268 267 268 270 272 275 275 275 274 279 283 286 286 286 287 287 285 281 280 280 277
257 257 261 264 262 259 259 256 254 255 257 257 257 258 260 262 263 264 266 267 268 268 268 268 269 270 272 276 279 279 277 279 282 285 284 284 286 286 284 283 281 280 278
258 259 262 262 260 257 256 255 256 256 255 256 257 257 259 260 263 264 266 267 268 269 270 270 269 270 272 276 279 280 280 281 282 284 285 286 286 286 285 284 284 283 280
259 259 259 259 257 256 256 256 256 256 255 255 256 256 258 261 265 266 266 267 268 269 271 272 272 272 274 276 278 280 281 284 285 284 284 285 284 285 285 285 285 284 280
260 259 258 258 255 254 255 255 255 255 255 254 255 255 258 261 263 265 267 267 269 272 272 273 274 275 276 278 279 280 281 284 285 284 282 282 282 281 284 286 285 286 284
257 257 258 258 255 254 254 254 254 254 254 254 256 258 260 262 264 265 267 268 269 272 272 271 275 276 278 279 282 281 283 284 285 284 282 282 281 280 281 284 284 284 284
254 256 258 258 256 256 255 255 257 256 254 255 257 258 259 262 264 265 267 269 270 270 271 274 277 277 278 279 282 280 281 280 280 281 283 283 284 282 280 282 284 283 282
255 256 257 258 256 256 256 257 258 255 251 252 255 257 259 262 264 266 268 267 268 268 270 274 277 276 277 278 281 280 280 279 277 278 281 283 283 283 282 281 282 282 282
Height
5853 5853 5853 5853 5853 5853 5853 5853 5854 5853 5853 5853 5852 5851 5851 5851 5851 5851 5851 5851 5851 5851 5851 5851 5851 5851 5850 5850 5850 5850 5850 5850 5849 5849 5849 5849 5848 5848 5848 5848 5848 5848 5848
5849 5849 5849 5849 5849 5849 5850 5850 5850 5850 5850 5850 5849 5849 5848 5848 5848 5848 5848 5848 5848 5848 5848 5848 5848 5848 5847 5847 5847 5847 5847 5846 5846 5846 5846 5846 5846 5845 5844 5844 5844 5844 5844
5844 5844 5844 5844 5845 5845 5846 5846 5846 5846 5846 5846 5846 5845 5845 5845 5844 5844 5845 5845 5844 5844 5844 5844 5844 5844 5844 5844 5844 5843 5843 5843 5843 5842 5842 5842 5842 5841 5841 5840 5840 5840 5840
5839 5839 5840 5840 5840 5841 5841 5842 5842 5842 5842 5842 5842 5842 5841 5841 5840 5841 5841 5841 5841 5841 5841 5841 5841 5840 5840 5840 5840 5840 5839 5839 5839 5839 5838 5838 5838 5838 5837 5837 5836 5836 5835
5833 5834 5834 5835 5836 5836 5837 5837 5837 5838 5838 5838 5837 5837 5837 5837 5836 5836 5837 5837 5837 5837 5837 5837 5836 5836 5836 5836 5836 5836 5835 5835 5835 5834 5834 5833 5833 5833 5833 5833 5832 5831 5831
5828 5828 5829 5830 5830 5831 5832 5832 5833 5833 5833 5833 5833 5833 5832 5832 5832 5832 5832 5832 5832 5832 5832 5832 5832 5832 5832 5832 5831 5831 5831 5830 5830 5830 5829 5829 5828 5828 5827 5827 5827 5826 5826
5822 5823 5824 5825 5825 5826 5826 5827 5828 5828 5828 5828 5828 5828 5827 5827 5827 5827 5827 5828 5828 5828 5828 5827 5827 5827 5827 5827 5827 5826 5826 5826 5825 5825 5824 5824 5823 5822 5822 5821 5821 5820 5820
5817 5818 5819 5820 5820 5821 5821 5822 5822 5823 5823 5823 5823 5823 5822 5822 5822 5822 5822 5822 5823 5823 5823 5823 5823 5823 5823 5822 5822 5821 5821 5821 5820 5819 5819 5818 5818 5817 5816 5816 5815 5815 5815
5812 5813 5814 5814 5815 5816 5816 5817 5817 5817 5817 5817 5817 5817 5817 5817 5817 5817 5817 5817 5818 5818 5818 5818 5818 5818 5818 5817 5817 5816 5816 5815 5815 5814 5813 5813 5812 5811 5811 5810 5809 5809 5809
5807 5808 5808 5809 5810 5810 5810 5811 5812 5812 5812 5812 5811 5811 5811 5811 5812 5812 5812 5812 5812 5813 5813 5813 5813 5813 5813 5812 5812 5811 5811 5810 5809 5808 5807 5807 5806 5806 5805 5804 5803 5803 5803
5801 5802 5803 5803 5804 5804 5805 5805 5806 5806 5806 5806 5806 5806 5806 5806 5806 5806 5806 5807 5807 5807 5807 5807 5807 5807 5807 5807 5806 5806 5805 5804 5803 5802 5802 5801 5800 5799 5798 5798 5797 5796 5796
5795 5796 5797 5797 5798 5799 5799 5799 5800 5800 5800 5800 5800 5800 5800 5800 5800 5800 5800 5801 5801 5801 5801 5801 5801 5801 5801 5801 5801 5800 5799 5799 5798 5797 5796 5795 5794 5793 5792 5791 5790 5789 5789
5790 5790 5791 5792 5792 5793 5793 5793 5794 5794 5793 5793 5793 5793 5794 5794 5794 5794 5794 5795 5795 5795 5795 5795 5795 5795 5795 5795 5795 5794 5794 5793 5792 5791 5790 5789 5787 5786 5785 5783 5783 5782 5782
5784 5785 5786 5786 5787 5787 5787 5787 5787 5787 5787 5787 5787 5787 5787 5787 5788 5788 5788 5789 5789 5789 5789 5789 5789 5789 5789 5789 5789 5788 5788 5787 5786 5785 5784 5782 5780 5779 5777 5776 5775 5774 5774
5778 5779 5780 5780 5780 5781 5781 5781 5780 5780 5780 5780 5780 5781 5781 5781 5781 5782 5782 5783 5783 5784 5783 5783 5783 5783 5783 5783 5782 5782 5782 5781 5781 5779 5777 5776 5774 5772 5770 5769 5768 5766 5766
5772 5773 5773 5774 5774 5775 5775 5775 5775 5775 5775 5775 5775 5775 5775 5775 5775 5776 5777 5777 5777 5777 5777 5777 5777 5777 5777 5776 5776 5776 5776 5775 5774 5773 5771 5769 5767 5765 5763 5762 5761 5760 5759
5767 5767 5767 5767 5768 5768 5768 5769 5769 5769 5769 5769 5769 5770 5770 5770 5771 5771 5771 5771 5771 5771 5771 5771 5771 5771 5771 5771 5770 5770 5770 5769 5768 5767 5765 5762 5760 5758 5756 5754 5753 5753 5752
5760 5761 5761 5761 5761 5762 5762 5762 5763 5763 5763 5763 5764 5764 5764 5765 5765 5766 5766 5766 5765 5765 5765 5765 5765 5765 5765 5765 5765 5764 5764 5763 5762 5760 5758 5756 5754 5752 5750 5748 5747 5746 5746
5754 5754 5755 5755 5755 5755 5755 5756 5756 5757 5757 5757 5758 5759 5759 5760 5760 5760 5760 5760 5759 5759 5759 5759 5758 5759 5759 5759 5758 5757 5757 5756 5755 5753 5752 5750 5748 5746 5744 5742 5741 5740 5739
5746 5747 5748 5748 5748 5748 5749 5749 5750 5751 5751 5751 5752 5753 5753 5754 5754 5754 5754 5754 5754 5753 5753 5753 5753 5753 5753 5752 5752 5751 5751 5750 5749 5747 5745 5743 5742 5740 5738 5736 5735 5734 5734
5739 5740 5741 5741 5741 5742 5742 5743 5743 5744 5745 5746 5746 5747 5747 5748 5748 5748 5748 5748 5748 5747 5747 5747 5747 5747 5747 5746 5745 5745 5744 5743 5742 5741 5739 5737 5736 5734 5733 5731 5730 5729 5728
5732 5733 5733 5734 5734 5735 5736 5736 5737 5738 5739 5740 5740 5741 5741 5742 5742 5742 5742 5742 5742 5742 5741 5741 5741 5741 5740 5740 5739 5739 5738 5737 5736 5734 5733 5731 5730 5729 5727 5726 5725 5723 5722
5724 5725 5726 5727 5727 5728 5729 5729 5730 5731 5732 5733 5734 5734 5735 5735 5736 5736 5736 5736 5736 5735 5735 5735 5735 5734 5734 5734 5733 5732 5731 5730 5729 5728 5727 5726 5724 5723 5722 5721 5720 5718 5717
5717 5718 5719 5719 5720 5721 5722 5722 5723 5724 5725 5726 5727 5728 5728 5729 5729 5730 5730 5729 5729 5729 5729 5729 5729 5728 5728 5727 5726 5726 5725 5724 5723 5722 5721 5720 5719 5717 5717 5715 5714 5713 5712
5709 5710 5711 5712 5713 5714 5714 5715 5716 5717 5718 5719 5720 5721 5722 5723 5723 5723 5723 5723 5723 5723 5724 5723 5723 5722 5722 5721 5720 5719 5718 5717 5716 5715 5715 5714 5713 5712 5711 5710 5709 5708 5707
5701 5702 5703 5704 5705 5706 5707 5708 5709 5710 5711 5713 5714 5715 5716 5716 5716 5717 5717 5717 5717 5717 5717 5717 5717 5716 5716 5715 5714 5713 5712 5711 5710 5709 5709 5708 5707 5707 5706 5705 5704 5703 5702